DO-64
1 32789U 08021G 12130.69723355 .00003071 00000-0 36085-3 0 03076
2 32789 097.8141 195.1199 0014887 179.5103 180.6113 14.85541679218168
CO-66
1 32791U 08021J 12130.81149273 .00001651 00000-0 20770-3 0 02901
2 32791 097.8013 192.7653 0015933 179.9575 180.1626 14.83295861218056
RS-30
1 32953U 08025A 12131.05802784 .00000010 00000-0 00000 0 0 7649
2 32953 082.5011 318.8557 0019433 033.8136 326.4183 12.43023182179822
TACSAT-3
1 35001U 09028A 12121.72616188 .15204951 73582-5 42606-3 0 00016
2 35001 040.4259 351.8840 0007146 275.2650 085.0693 16.45157000166990
PHARMSAT
1 35002U 09028B 12130.90911432 .00084461 00000-0 50322-3 0 08992
2 35002 040.4631 311.1644 0006298 307.5783 052.4464 15.76846217168263
METEOR-M
1 35865U 09049A 12131.21977172 .00000001 00000-0 20118-4 0 3961
2 35865 098.6580 186.2509 0002733 143.9302 216.2061 14.21861424137207
RS-38
1 35869U 09049E 12131.31684998 .00000048 00000-0 41332-4 0 4049
2 35869 098.6536 186.3482 0004871 152.3590 207.7844 14.22068238137231
JUGNU
1 37839U 11058B 12130.65792387 .00000620 00000-0 19019-3 0 01464
2 37839 019.9620 231.6486 0018485 156.6258 203.4975 14.12050603029797
SRMSAT
1 37841U 11058D 12130.66004140 .00000264 00000-0 00000-0 0 01473
2 37841 019.9747 235.7683 0011845 129.3185 230.8312 14.10136386029759
RAX-2
1 37853U 11061D 12130.98765468 .00005047 00000-0 40662-3 0 01758
2 37853 101.7155 153.7882 0248646 099.8776 263.0592 14.79608040028756
AUBIESAT
1 37854U 11061E 12130.95188896 .00005023 00000-0 39726-3 0 01821
2 37854 101.7176 153.9350 0250563 099.6022 263.3583 14.79963988028731
HRBE
1 37855U 11061F 12130.96204719 .00005001 00000-0 39816-3 0 01776
2 37855 101.7199 153.9193 0249937 099.3746 263.5805 14.79835773028734
RS-39
1 38051U 11062C 12130.96910094 .00006491 00000-0 28063-3 0 03190
2 38051 051.6307 341.8813 0010751 260.3847 240.4136 15.23622321016142
E-STAR
1 38079U 12006C 12131.73937219 .00031723 00000-0 77215-3 0 2179
2 38079 069.4995 041.1367 0753534 294.9815 057.5220 14.12989487 12296
GOLIAT
1 38085U 12006J 12131.13915793 .00029736 00000-0 73456-3 0 2032
2 38085 069.4992 042.6468 0756665 295.8165 056.7094 14.12032533 12206
